AAL79 KORD-KSYR

Flight info

Callsign AAL79
Flight time 0h 45m
Altitude 35000
Route EBAKE WISMO POSTS PADDE SVM DKK
Aircraft B738/M-SDE2E3FGHIRWXY/LB1

Departure

Time 2026-04-25 02:12
Airport Chicago O'Hare International Airport (KORD)

Arrival

Time 2026-04-25 02:58
Airport Syracuse Hancock International Airport (KSYR)
Time Latitude Longitude Altitude Speed Heading
2026-04-25 01:32 41.97429 -87.90261 670 ft 0 kts 272°
2026-04-25 01:59 41.97429 -87.90260 670 ft 2 kts 272°
2026-04-25 02:00 41.97431 -87.90229 646 ft 4 kts 239°
2026-04-25 02:00 41.97449 -87.90210 669 ft 4 kts 184°
2026-04-25 02:00 41.97454 -87.90210 668 ft 2 kts 180°
2026-04-25 02:04 41.97451 -87.90210 668 ft 1 kts 180°
2026-04-25 02:05 41.97426 -87.90210 670 ft 6 kts 180°
2026-04-25 02:05 41.97368 -87.90210 669 ft 10 kts 180°
2026-04-25 02:05 41.97286 -87.90210 669 ft 13 kts 180°
2026-04-25 02:05 41.97207 -87.90174 669 ft 13 kts 107°
2026-04-25 02:06 41.97207 -87.90056 669 ft 13 kts 89°
2026-04-25 02:06 41.97208 -87.89935 669 ft 13 kts 89°
2026-04-25 02:06 41.97221 -87.89863 668 ft 0 kts 72°
2026-04-25 02:07 41.97232 -87.89830 669 ft 10 kts 60°
2026-04-25 02:07 41.97281 -87.89714 669 ft 18 kts 63°
2026-04-25 02:07 41.97361 -87.89572 669 ft 20 kts 36°
2026-04-25 02:08 41.97488 -87.89524 668 ft 19 kts
2026-04-25 02:08 41.97618 -87.89527 670 ft 18 kts 359°
2026-04-25 02:08 41.97743 -87.89526 670 ft 18 kts
2026-04-25 02:08 41.97864 -87.89525 670 ft 17 kts
2026-04-25 02:09 41.97970 -87.89477 669 ft 16 kts 46°
2026-04-25 02:09 41.98044 -87.89364 667 ft 16 kts 50°
2026-04-25 02:09 41.98132 -87.89366 669 ft 15 kts 310°
2026-04-25 02:09 41.98204 -87.89465 669 ft 15 kts 316°
2026-04-25 02:10 41.98237 -87.89507 669 ft 0 kts 318°
2026-04-25 02:10 41.98243 -87.89513 669 ft 5 kts 327°
2026-04-25 02:10 41.98282 -87.89499 669 ft 8 kts 65°
2026-04-25 02:10 41.98289 -87.89428 668 ft 8 kts 86°
2026-04-25 02:11 41.98328 -87.89384 667 ft 9 kts 347°
2026-04-25 02:11 41.98377 -87.89424 666 ft 8 kts 315°
2026-04-25 02:11 41.98388 -87.89459 665 ft 0 kts 275°
2026-04-25 02:11 41.98390 -87.89509 667 ft 27 kts 273°
2026-04-25 02:12 41.98391 -87.90084 667 ft 97 kts 270°
2026-04-25 02:12 41.98392 -87.91272 670 ft 155 kts 272°
2026-04-25 02:12 41.98350 -87.92860 1048 ft 176 kts 267°
2026-04-25 02:12 41.98250 -87.94437 2026 ft 164 kts 272°
2026-04-25 02:13 41.98128 -87.95934 2828 ft 154 kts 272°
2026-04-25 02:13 41.98046 -87.97295 3613 ft 136 kts 270°
2026-04-25 02:13 41.97951 -87.98607 3939 ft 156 kts 270°
2026-04-25 02:13 41.97852 -88.00260 3965 ft 197 kts 270°
2026-04-25 02:14 41.97755 -88.02197 4191 ft 218 kts 270°
2026-04-25 02:14 41.97662 -88.04230 4769 ft 216 kts 270°
2026-04-25 02:14 41.97617 -88.06323 4996 ft 233 kts 281°
2026-04-25 02:14 41.97982 -88.07685 5007 ft 237 kts 307°
2026-04-25 02:15 41.99285 -88.08969 5110 ft 243 kts 345°
2026-04-25 02:15 42.01016 -88.08840 5541 ft 261 kts 18°
2026-04-25 02:15 42.02633 -88.07648 6233 ft 270 kts 36°
2026-04-25 02:15 42.03898 -88.05730 6875 ft 281 kts 59°
2026-04-25 02:16 42.04615 -88.03264 7624 ft 286 kts 69°
2026-04-25 02:16 42.05198 -88.00692 8362 ft 289 kts 70°
2026-04-25 02:16 42.05776 -87.98083 9069 ft 293 kts 70°
2026-04-25 02:16 42.06372 -87.95442 9795 ft 296 kts 70°
2026-04-25 02:17 42.06993 -87.92761 10274 ft 308 kts 69°
2026-04-25 02:17 42.07670 -87.89913 10430 ft 330 kts 69°
2026-04-25 02:17 42.08401 -87.86878 10601 ft 350 kts 69°
2026-04-25 02:17 42.09172 -87.83701 11001 ft 361 kts 69°
2026-04-25 02:18 42.09959 -87.80467 11612 ft 365 kts 69°
2026-04-25 02:18 42.10754 -87.77206 12294 ft 368 kts 69°
2026-04-25 02:18 42.11546 -87.73961 12962 ft 371 kts 69°
2026-04-25 02:18 42.12368 -87.70601 13640 ft 375 kts 69°
2026-04-25 02:19 42.13174 -87.67300 14309 ft 377 kts 70°
2026-04-25 02:19 42.13906 -87.63877 14879 ft 384 kts 72°
2026-04-25 02:19 42.14613 -87.60378 15443 ft 390 kts 72°
2026-04-25 02:19 42.15366 -87.56850 16035 ft 394 kts 71°
2026-04-25 02:20 42.16164 -87.53354 17051 ft 385 kts 71°
2026-04-25 02:20 42.16979 -87.49956 18075 ft 378 kts 70°
2026-04-25 02:20 42.17802 -87.46625 18954 ft 372 kts 71°
2026-04-25 02:20 42.18630 -87.43323 19583 ft 374 kts 71°
2026-04-25 02:21 42.19473 -87.39980 20111 ft 379 kts 71°
2026-04-25 02:21 42.20327 -87.36592 20642 ft 383 kts 72°
2026-04-25 02:21 42.21188 -87.33172 21198 ft 387 kts 72°
2026-04-25 02:21 42.22057 -87.29713 21710 ft 392 kts 72°
2026-04-25 02:22 42.22947 -87.26160 21810 ft 408 kts 72°
2026-04-25 02:22 42.23858 -87.22515 21938 ft 422 kts 72°
2026-04-25 02:22 42.24824 -87.18647 22049 ft 436 kts 72°
2026-04-25 02:22 42.25792 -87.14772 22289 ft 445 kts 73°
2026-04-25 02:23 42.26785 -87.10789 22725 ft 449 kts 73°
2026-04-25 02:23 42.27708 -87.06759 23228 ft 450 kts 79°
2026-04-25 02:23 42.28188 -87.02586 23642 ft 449 kts 89°
2026-04-25 02:23 42.28358 -86.98375 24023 ft 451 kts 90°
2026-04-25 02:24 42.28495 -86.94131 24361 ft 454 kts 91°
2026-04-25 02:24 42.28632 -86.89842 24698 ft 458 kts 91°
2026-04-25 02:24 42.28778 -86.85536 25047 ft 461 kts 90°
2026-04-25 02:24 42.28937 -86.81197 25417 ft 464 kts 90°
2026-04-25 02:25 42.29105 -86.76837 25744 ft 466 kts 90°
2026-04-25 02:25 42.29277 -86.72447 26084 ft 469 kts 90°
2026-04-25 02:25 42.29452 -86.68027 26409 ft 472 kts 90°
2026-04-25 02:25 42.29627 -86.63594 26723 ft 475 kts 90°
2026-04-25 02:26 42.29800 -86.59128 27038 ft 477 kts 90°
2026-04-25 02:26 42.29973 -86.54627 27338 ft 480 kts 90°
2026-04-25 02:26 42.30142 -86.50167 27640 ft 482 kts 90°
2026-04-25 02:26 42.30312 -86.45618 27940 ft 485 kts 91°
2026-04-25 02:27 42.30481 -86.41052 28236 ft 487 kts 91°
2026-04-25 02:27 42.30649 -86.36450 28534 ft 490 kts 91°
2026-04-25 02:27 42.30816 -86.31839 28816 ft 492 kts 91°
2026-04-25 02:27 42.30982 -86.27215 29093 ft 495 kts 91°
2026-04-25 02:28 42.31147 -86.22560 29327 ft 497 kts 91°
2026-04-25 02:28 42.31311 -86.17885 29578 ft 500 kts 91°
2026-04-25 02:28 42.31474 -86.13183 29811 ft 502 kts 90°
2026-04-25 02:28 42.31620 -86.08454 30112 ft 502 kts 92°
2026-04-25 02:29 42.31646 -86.03755 30471 ft 499 kts 94°
2026-04-25 02:29 42.31593 -85.99074 30831 ft 497 kts 95°
2026-04-25 02:29 42.31508 -85.94469 31136 ft 497 kts 96°
2026-04-25 02:29 42.31417 -85.89799 31416 ft 497 kts 96°
2026-04-25 02:30 42.31333 -85.85122 31708 ft 498 kts 96°
2026-04-25 02:30 42.31258 -85.80450 32024 ft 497 kts 96°
2026-04-25 02:30 42.31191 -85.75779 32342 ft 497 kts 96°
2026-04-25 02:30 42.31127 -85.71122 32633 ft 497 kts 96°
2026-04-25 02:31 42.31064 -85.66450 32928 ft 497 kts 96°
2026-04-25 02:31 42.30998 -85.61787 33221 ft 496 kts 96°
2026-04-25 02:31 42.30931 -85.57134 33516 ft 496 kts 97°
2026-04-25 02:31 42.30861 -85.52473 33814 ft 495 kts 97°
2026-04-25 02:32 42.30789 -85.47819 34054 ft 495 kts 97°
2026-04-25 02:32 42.30715 -85.43168 34271 ft 495 kts 97°
2026-04-25 02:32 42.30638 -85.38516 34446 ft 496 kts 96°
2026-04-25 02:32 42.30559 -85.33856 34649 ft 496 kts 96°
2026-04-25 02:33 42.30479 -85.29191 34855 ft 497 kts 96°
2026-04-25 02:33 42.26620 -83.77372 35922 ft 521 kts 94°
2026-04-25 02:33 42.31140 -82.41257 35081 ft 525 kts 83°
2026-04-25 02:34 42.45759 -81.02022 34594 ft 518 kts 78°
2026-04-25 02:34 42.58404 -79.57608 34706 ft 522 kts 85°
2026-04-25 02:34 42.55992 -78.15143 34440 ft 518 kts 88°
2026-04-25 02:34 42.55846 -78.10109 34609 ft 505 kts 88°
2026-04-25 02:35 42.55685 -78.05427 34736 ft 486 kts 88°
2026-04-25 02:35 42.55516 -78.00933 34806 ft 470 kts 89°
2026-04-25 02:35 42.55339 -77.96573 34851 ft 456 kts 89°
2026-04-25 02:35 42.55154 -77.92413 34779 ft 441 kts 88°
2026-04-25 02:36 42.55037 -77.88254 34212 ft 432 kts 78°
2026-04-25 02:36 42.55733 -77.84392 32914 ft 426 kts 56°
2026-04-25 02:36 42.57346 -77.81054 31555 ft 426 kts 43°
2026-04-25 02:36 42.59223 -77.77845 30163 ft 441 kts 46°
2026-04-25 02:37 42.61007 -77.74369 28808 ft 453 kts 51°
2026-04-25 02:37 42.62578 -77.70663 27853 ft 453 kts 56°
2026-04-25 02:37 42.63944 -77.66823 27082 ft 448 kts 59°
2026-04-25 02:37 42.65158 -77.62948 26335 ft 443 kts 62°
2026-04-25 02:38 42.66280 -77.59084 25571 ft 438 kts 62°
2026-04-25 02:38 42.67356 -77.55245 24857 ft 432 kts 62°
2026-04-25 02:38 42.68407 -77.51456 24138 ft 425 kts 63°
2026-04-25 02:38 42.69447 -77.47710 23379 ft 420 kts 62°
2026-04-25 02:39 42.70479 -77.44018 22522 ft 415 kts 63°
2026-04-25 02:39 42.71502 -77.40371 21708 ft 410 kts 63°
2026-04-25 02:39 42.72517 -77.36763 20910 ft 406 kts 63°
2026-04-25 02:39 42.73508 -77.33244 20133 ft 402 kts 63°
2026-04-25 02:40 42.74519 -77.29658 19348 ft 399 kts 63°
2026-04-25 02:40 42.75496 -77.26188 18610 ft 396 kts 64°
2026-04-25 02:40 42.76474 -77.22705 17823 ft 392 kts 63°
2026-04-25 02:40 42.77455 -77.19216 16626 ft 397 kts 64°
2026-04-25 02:41 42.78443 -77.15697 15758 ft 395 kts 64°
2026-04-25 02:41 42.79391 -77.12290 15487 ft 375 kts 64°
2026-04-25 02:41 42.80303 -77.09008 14890 ft 368 kts 64°
2026-04-25 02:41 42.81211 -77.05753 14133 ft 366 kts 65°
2026-04-25 02:42 42.82111 -77.02526 13386 ft 363 kts 65°
2026-04-25 02:42 42.83002 -76.99326 12645 ft 359 kts 65°
2026-04-25 02:42 42.83884 -76.96154 11902 ft 356 kts 65°
2026-04-25 02:42 42.84756 -76.93013 11181 ft 353 kts 65°
2026-04-25 02:43 42.85623 -76.89884 10584 ft 348 kts 65°
2026-04-25 02:43 42.86454 -76.86869 10332 ft 331 kts 65°
2026-04-25 02:43 42.87244 -76.83997 10166 ft 315 kts 64°
2026-04-25 02:43 42.87999 -76.81253 10014 ft 305 kts 64°
2026-04-25 02:44 42.88743 -76.78558 9736 ft 303 kts 64°
2026-04-25 02:44 42.89475 -76.75912 9428 ft 301 kts 64°
2026-04-25 02:44 42.90210 -76.73209 9122 ft 301 kts 69°
2026-04-25 02:44 42.90340 -76.70371 8864 ft 304 kts 86°
2026-04-25 02:45 42.90676 -76.67571 8603 ft 297 kts 67°
2026-04-25 02:45 42.91364 -76.64920 8372 ft 298 kts 65°
2026-04-25 02:45 42.92070 -76.62263 8118 ft 297 kts 65°
2026-04-25 02:45 42.92769 -76.59615 7871 ft 296 kts 66°
2026-04-25 02:46 42.93463 -76.56970 7622 ft 296 kts 66°
2026-04-25 02:46 42.94152 -76.54325 7388 ft 294 kts 66°
2026-04-25 02:46 42.94822 -76.51740 7413 ft 285 kts 66°
2026-04-25 02:46 42.95477 -76.49203 7457 ft 283 kts 65°
2026-04-25 02:47 42.96137 -76.46654 7437 ft 286 kts 65°
2026-04-25 02:47 42.96812 -76.44051 7029 ft 293 kts 66°
2026-04-25 02:47 42.97486 -76.41433 6729 ft 291 kts 66°
2026-04-25 02:47 42.98155 -76.38828 6422 ft 290 kts 66°
2026-04-25 02:48 42.98822 -76.36230 6088 ft 289 kts 67°
2026-04-25 02:48 42.99483 -76.33651 5787 ft 286 kts 68°
2026-04-25 02:48 43.00143 -76.31138 5504 ft 276 kts 66°
2026-04-25 02:48 43.00906 -76.28793 5310 ft 262 kts 62°
2026-04-25 02:49 43.01659 -76.26530 4971 ft 261 kts 69°
2026-04-25 02:49 43.02163 -76.24156 4719 ft 261 kts 83°
2026-04-25 02:49 43.02225 -76.21713 4482 ft 261 kts 88°
2026-04-25 02:49 43.02266 -76.19227 4239 ft 262 kts 88°
2026-04-25 02:50 43.02317 -76.16743 3979 ft 261 kts 88°
2026-04-25 02:50 43.02372 -76.14275 3720 ft 259 kts 88°
2026-04-25 02:50 43.02429 -76.11840 3458 ft 251 kts 88°
2026-04-25 02:50 43.02489 -76.09502 3187 ft 242 kts 88°
2026-04-25 02:51 43.02547 -76.07245 2923 ft 234 kts 88°
2026-04-25 02:51 43.02601 -76.05068 2733 ft 222 kts 88°
2026-04-25 02:51 43.02649 -76.03010 2709 ft 215 kts 88°
2026-04-25 02:51 43.02695 -76.00962 2700 ft 217 kts 88°
2026-04-25 02:52 43.02743 -75.98880 2584 ft 221 kts 88°
2026-04-25 02:52 43.02792 -75.96780 2457 ft 221 kts 88°
2026-04-25 02:52 43.03019 -75.94732 2307 ft 218 kts 69°
2026-04-25 02:52 43.03613 -75.92841 2183 ft 216 kts 68°
2026-04-25 02:53 43.04199 -75.90941 2067 ft 218 kts 68°
2026-04-25 02:53 43.04786 -75.89019 2010 ft 219 kts 67°
2026-04-25 02:53 43.05636 -75.87327 1978 ft 217 kts 39°
2026-04-25 02:53 43.06999 -75.86582 1979 ft 209 kts
2026-04-25 02:54 43.08400 -75.86558 1987 ft 195 kts 354°
2026-04-25 02:54 43.09595 -75.87257 2007 ft 187 kts 328°
2026-04-25 02:54 43.10680 -75.88269 2007 ft 190 kts 327°
2026-04-25 02:54 43.11521 -75.89633 1969 ft 190 kts 287°
2026-04-25 02:55 43.11540 -75.91412 2013 ft 190 kts 265°
2026-04-25 02:55 43.11465 -75.93243 1996 ft 195 kts 268°
2026-04-25 02:55 43.11410 -75.95048 1993 ft 186 kts 267°
2026-04-25 02:55 43.11327 -75.96740 1976 ft 171 kts 267°
2026-04-25 02:56 43.11290 -75.98351 1931 ft 165 kts 268°
2026-04-25 02:56 43.11235 -75.99872 1980 ft 151 kts 264°
2026-04-25 02:56 43.11138 -76.01259 1642 ft 149 kts 267°
2026-04-25 02:56 43.11084 -76.02663 1386 ft 146 kts 271°
2026-04-25 02:57 43.11107 -76.04057 1186 ft 148 kts 267°
2026-04-25 02:57 43.10997 -76.05447 1075 ft 142 kts 260°
2026-04-25 02:57 43.10970 -76.06773 826 ft 142 kts 272°
2026-04-25 02:57 43.10956 -76.08123 691 ft 142 kts 268°
2026-04-25 02:58 43.10922 -76.09469 454 ft 138 kts 267°
2026-04-25 02:58 43.10883 -76.10620 419 ft 93 kts 268°
2026-04-25 02:58 43.10873 -76.11190 423 ft 24 kts 270°
2026-04-25 02:58 43.10887 -76.11232 420 ft 2 kts 332°
2026-04-25 02:59 43.10914 -76.11219 429 ft 5 kts 39°
2026-04-25 02:59 43.10949 -76.11203 426 ft 5 kts 18°
2026-04-25 02:59 43.10977 -76.11168 419 ft 6 kts 47°
2026-04-25 02:59 43.10992 -76.11114 431 ft 7 kts 86°
2026-04-25 03:00 43.10997 -76.11024 430 ft 12 kts 85°
2026-04-25 03:00 43.11002 -76.10899 415 ft 15 kts 87°
2026-04-25 03:00 43.11006 -76.10849 419 ft 2 kts 66°
2026-04-25 03:00 43.11013 -76.10834 421 ft 4 kts 60°